STARLINK-34999, 65222

Orbit data source: Space-Track

STARLINK-34999, 65222 is a payload satellite owned by SpaceX/Seattle (US) in LEO that was launched on Thu, 14 Aug 2025 UTC via an FALCON 9 launch vehicle from the Air Force Eastern Test Range (AFETR). Payload-class satellites include a variety of spacecraft equipped with specific instruments for various scientific and technological missions. These include communications satellites like Starlink; space stations such as the ISS; scientific satellites like the Hubble; Earth observation satellites from companies like Planet Labs, Umbra, and HawkEye 360; GPS; miniature CubeSats for education and research; and military/defense satellites.

Loading next visibility...
Identifier
65222, 2025-176AA
Orbit
LEO
Country
Flag of USUS
Related business
Manufacturer
SpaceX/Seattle
Mission
Operational Commercial Communications
Bus & Motor
STARLINK V2MO, Unknown motor
Mass
575 kg wet, ~530 kg dry
Launch date (UTC)
2025-08-14 (10 months ago)
Launch vehicle
FALCON 9
Launch site
Air Force Eastern Test Range (AFETR)
Object type
Payload
Rocket body
Debris
Shape & HBR
Box + 2 Pan, 17.7 m
Radar Cross Section
36.964 m², Large (>1 m²)

Expand to show TLE details & history
Last TLE update: 12 hours ago

TLE from 12 hours ago
0 STARLINK-34999
1 65222U 25176AA  26171.35212616  .00023355  00000-0  70040-3 0  9993
2 65222  53.1600  34.8004 0001197  90.5435 269.5705 15.34390816 48856
Epoch: 2026-06-20T08:27Z
TLE epoch observation values (Epoch: 2026-06-20T08:27:03.700Z)
Latitude
0.00001°
Longitude
-0.53299°
Altitude
463.638 km
Speed
7.636 km/s
True Right ascension
02h 19m 12s
True Declination
0° 00' 00"
Sunlit
Object was in daylight at epoch
Visualization orbit readout
Latitude
Unknown
Longitude
Unknown
Altitude
Unknown
Speed
Unknown
Apparent Right ascension
Unknown
Apparent Declination
Unknown
Sunlit
N/A
Visualization observer readout
Local Sidereal Time
07:21:43
Azimuth
Unknown
Elevation
Unknown
Doppler factor
Unknown
Orbital elements
Apogee altitude
463.806 km
Perigee altitude
462.169 km
Semi-major axis
6,841.124 km
Eccentricity
0.00012
Inclination
53.16°
RAAN
34.8004°
Arg. of periapsis
90.5435°
True anomaly
269.55678°
Mean anomaly
269.5705°
Eccentric anomaly
269.56364°
Mean motion
3.83576 °/min
Orbital period
93.85 mins
BSTAR
0.0007004
Loading maneuver chart data...
Computing Atmospheric mass density...
Loading historical data...
Loading historical data...
Loading historical data...
Loading historical data...
Loading historical data...
Loading historical data...
Loading historical data...

Documentation

Showing up to 5 results
|